Flag for Finland Weather past 2 weeks in Helsinki, Finland

Now
32 °F

Low clouds.


Feels Like: 32 °F
Forecast: 32 / 36 °F
Wind: 2 mph from East

Location: Helsinki Malmi Airport

Current Time: Feb 28, 2015 at 4:15:27 AM

Latest Report: Feb 28, 2015 at 3:50 AM


Visibility: N/A

Pressure: 30.01 "Hg

Humidity: 93%

Dew point: 30 °F

Location of HelsinkiLocation

Historic Weather in Helsinki — Graph

°F

Helsinki temperature yesterday

Maximum temperature yesterday: 37 °F (at 12:50 PM)
Minimum temperature yesterday: 30 °F (at 5:20 PM)
Average temperature yesterday: 34 °F

Past Weeks' High & Low Weather Summary

 TemperatureHumidityPressure
High39 °F (Feb 19, 6:50 PM)100% (Feb 13, 3:20 AM)30.83 "Hg (Feb 13, 3:20 AM)
Low12 °F (Feb 16, 2:50 AM)43% (Feb 15, 2:20 PM)29.18 "Hg (Feb 22, 8:50 AM)
Average33 °F85%29.97 "Hg
* Reported Feb 13 3:20 AM — Feb 28 3:20 AM, Helsinki, Weather by CustomWeather, © 2015

Note: Actual official high and low records may vary slightly from our data, if they occured in-between our weather recording intervals... More about our weather records

Advertising

Helsinki weather history for previous 24 hours

 ConditionsComfort  
Time TempWeatherWind HumidityBarometerVisibility
3:20 AM
Sat, Feb 28
32 °FOvercast.1 mph93%30.01 "HgN/A
2:50 AM32 °FMostly cloudy.3 mph93%30.01 "Hg6 mi
2:20 AM32 °FMostly cloudy.3 mph93%30.01 "Hg6 mi
1:50 AM32 °FMostly cloudy.5 mph93%30.04 "Hg6 mi
1:20 AM32 °FLow clouds.5 mph93%30.04 "HgN/A
12:50 AM32 °FMostly cloudy.3 mph93%30.04 "HgN/A
12:20 AM32 °FMostly cloudy.2 mph93%30.04 "HgN/A
11:50 PM
Fri, Feb 27
32 °FOvercast.6 mph93%30.04 "HgN/A
11:20 PM32 °FOvercast.5 mph93%30.07 "HgN/A
10:50 PM32 °FLow clouds.7 mph93%30.07 "HgN/A
10:20 PM32 °FLow clouds.5 mph93%30.07 "HgN/A
9:50 PM32 °FLow clouds.6 mph93%30.07 "HgN/A
9:20 PM32 °FLow clouds.7 mph93%30.07 "HgN/A
8:50 PM32 °FPassing clouds.8 mph93%30.09 "HgN/A
8:20 PM32 °FPassing clouds.8 mph93%30.09 "Hg5 mi
7:50 PM32 °FPassing clouds.7 mph93%30.09 "Hg4 mi
7:20 PM30 °FIce fog.7 mph100%30.09 "Hg2 mi
6:50 PM30 °FIce fog.7 mph100%30.09 "Hg2 mi
6:20 PM30 °FIce fog.7 mph100%30.09 "Hg3 mi
5:50 PM30 °FIce fog.3 mph100%30.09 "Hg2 mi
5:20 PM30 °FPartly sunny.8 mph100%30.09 "HgN/A
4:50 PM32 °FBroken clouds.6 mph93%30.12 "HgN/A
4:20 PM34 °FPartly sunny.7 mph87%30.12 "HgN/A
3:50 PM36 °FPartly sunny.7 mph87%30.12 "HgN/A
3:20 PM36 °FPartly sunny.9 mph87%30.12 "HgN/A
2:50 PM37 °FPartly sunny.9 mph70%30.12 "HgN/A
2:20 PM37 °FPartly sunny.8 mph70%30.12 "HgN/A
1:50 PM37 °FPartly sunny.7 mph70%30.15 "HgN/A
1:20 PM37 °FPartly sunny.9 mph75%30.15 "HgN/A
12:50 PM37 °FPartly sunny.8 mph81%30.15 "HgN/A
12:20 PM36 °FPartly sunny.8 mph87%30.15 "HgN/A
11:50 AM36 °FPartly sunny.7 mph87%30.15 "HgN/A
11:20 AM36 °FBroken clouds.8 mph87%30.15 "HgN/A
10:50 AM34 °FPartly sunny.8 mph93%30.15 "HgN/A
10:20 AM34 °FPartly sunny.8 mph93%30.18 "HgN/A
9:50 AM34 °FPartly sunny.6 mph93%30.18 "HgN/A
9:20 AM34 °FLow clouds.7 mph93%30.18 "Hg6 mi
8:50 AM34 °FLow clouds.5 mph93%30.18 "Hg6 mi
8:20 AM34 °FLow clouds.5 mph93%30.18 "HgN/A
7:50 AM34 °FLow clouds.3 mph93%30.18 "HgN/A
7:20 AM34 °FLow clouds.5 mph93%30.18 "HgN/A
6:50 AM34 °FLow clouds.6 mph93%30.18 "HgN/A
6:20 AM34 °FLow clouds.5 mph93%30.18 "Hg6 mi
5:20 AM34 °FLow clouds.8 mph93%30.18 "Hg6 mi
4:50 AM34 °FLow clouds.5 mph93%30.18 "HgN/A
4:20 AM34 °FLow clouds.5 mph93%30.18 "HgN/A
Weather by CustomWeather, © 2015

See weather overviewHow to use our weather pages